Home   Weather   47°03'N, 7°05'E   Past weeks
Flag for Switzerland

Past Weather in 47°03'N, 7°05'E, Switzerland — Yesterday and Last 2 Weeks

Now
50 °F

Cool.


Feels Like: 50 °F
Forecast: 80 / 54 °F
Wind: 2 mph from South

Location: Bern / Belp

Current Time: Jul 16, 2019 at 6:54:03 am

Latest Report: Jul 16, 2019 at 5:50 am


Visibility: 3 mi

Pressure: 30.07 "Hg

Humidity: 100%

Dew Point: 50 °F

Location of 47°03'N, 7°05'ELocation

Past Weather in 47°03'N, 7°05'E — Graph

°F

47°03'N, 7°05'E Temperature Yesterday

Maximum temperature yesterday: 72 °F (at 5:50 pm)
Minimum temperature yesterday: 55 °F (at 1:50 am)
Average temperature yesterday: 61 °F

High & Low Weather Summary for the Past Weeks

 TemperatureHumidityPressure
High91 °F (Jul 1, 2:50 pm)100% (Jul 3, 6:50 am)30.15 "Hg (Jul 3, 6:50 am)
Low48 °F (Jul 11, 4:50 am)27% (Jul 5, 6:20 pm)29.89 "Hg (Jul 14, 4:50 pm)
Average68 °F69%30.03 "Hg
* Reported Jul 1 5:20 am — Jul 16 5:20 am, 47°03'N, 7°05'E. Weather by CustomWeather, © 2019

Note: Actual official high and low records may vary slightly from our data, if they occured in-between our weather recording intervals... More about our weather records

Advertising

47°03'N, 7°05'E Weather History for the Previous 24 Hours

Scroll right to see more
 ConditionsComfort  
Time TempWeatherWind HumidityBarometerVisibility
5:20 am
Tue, Jul 16
50 °FCool.1 mph100%30.07 "Hg5 mi
4:50 am52 °FCool.3 mph94%30.07 "Hg3 mi
4:20 am52 °FFog.2 mph100%30.07 "Hg3 mi
3:50 am52 °FCool.1 mph100%30.07 "Hg3 mi
3:20 am54 °FCool.2 mph100%30.07 "Hg4 mi
2:50 am54 °FCool.5 mph100%30.07 "Hg5 mi
2:20 am54 °FCool.6 mph100%30.07 "Hg5 mi
1:50 am54 °FCool.2 mph100%30.07 "Hg4 mi
1:20 am55 °FCool.3 mph94%30.07 "Hg5 mi
12:50 am57 °FClear.5 mph94%30.07 "Hg10 mi
12:20 am57 °FCool.5 mph94%30.07 "HgN/A
11:50 pm
Mon, Jul 15
61 °FPartly cloudy.5 mph88%30.04 "HgN/A
11:20 pm61 °FPassing clouds.5 mph88%30.07 "HgN/A
10:50 pm61 °FPassing clouds.6 mph88%30.04 "HgN/A
10:20 pm61 °FPassing clouds.6 mph88%30.04 "HgN/A
9:50 pm63 °FPassing clouds.7 mph83%30.04 "HgN/A
9:20 pm64 °FScattered clouds.6 mph78%30.04 "HgN/A
8:50 pm66 °FScattered clouds.3 mph73%30.01 "HgN/A
8:20 pm66 °FScattered clouds.5 mph68%30.01 "HgN/A
7:50 pm68 °FScattered clouds.7 mph64%30.01 "HgN/A
7:20 pm68 °FScattered clouds.7 mph69%30.01 "HgN/A
6:50 pm68 °FPartly sunny.3 mph64%30.01 "HgN/A
6:20 pm68 °FPartly sunny.3 mph64%30.01 "HgN/A
5:50 pm72 °FPartly sunny.7 mph57%30.01 "HgN/A
5:20 pm68 °FPartly sunny.3 mph64%30.01 "HgN/A
4:50 pm68 °FPartly sunny.1 mph69%30.01 "HgN/A
4:20 pm66 °FPartly sunny.3 mph68%30.01 "HgN/A
3:50 pm64 °FBroken clouds.5 mph73%30.01 "HgN/A
3:20 pm64 °FBroken clouds.3 mph68%30.01 "HgN/A
2:50 pm64 °FBroken clouds.6 mph73%29.98 "HgN/A
2:20 pm64 °FBroken clouds.7 mph73%29.98 "HgN/A
1:50 pm64 °FBroken clouds.5 mph73%29.98 "HgN/A
1:20 pm63 °FBroken clouds.7 mph77%29.98 "HgN/A
12:50 pm63 °FBroken clouds.6 mph73%29.98 "HgN/A
12:20 pm63 °FBroken clouds.5 mph77%29.98 "HgN/A
11:50 am61 °FBroken clouds.6 mph77%29.98 "HgN/A
11:20 am59 °FPartly sunny.3 mph82%29.98 "HgN/A
10:50 am59 °FPartly sunny.3 mph82%29.98 "HgN/A
10:20 am59 °FPartly sunny.3 mph82%29.98 "HgN/A
9:50 am57 °FPartly sunny.3 mph82%29.98 "HgN/A
9:20 am57 °FOvercast.3 mph88%29.98 "HgN/A
8:50 am57 °FOvercast.3 mph88%29.98 "HgN/A
8:20 am57 °FOvercast.2 mph82%29.95 "HgN/A
7:50 am57 °FOvercast.2 mph88%29.95 "HgN/A
7:20 am57 °FPartly sunny.5 mph82%29.95 "HgN/A
6:50 am57 °FPartly sunny.3 mph88%29.95 "HgN/A
6:20 am57 °FLight rain. Broken clouds.2 mph88%29.95 "Hg4 mi
Weather by CustomWeather, © 2019

See weather overview

LIVE PARTIAL LUNAR ECLIPSE – Watch the eclipse as it happens